Ocean City, MD

10:50 PM EDT on May 22, 2017 (GMT -0400)
Ocean City Municipal

Weather History for KOXB - November, 2012

Change the Weather History Date:

Sunday, November 18, 2012

  Actual Average (KSBY) Record (KSBY)
Temperature  
Mean Temperature 52 °F -  
Max Temperature 55 °F 58 °F 78 °F (1928)
Min Temperature 48 °F 34 °F 19 °F (1914)
Degree Days  
Heating Degree Days 14    
Growing Degree Days 2 (Base 50)    
Moisture  
Dew Point 45 °F    
Average Humidity 77    
Maximum Humidity 86    
Minimum Humidity 69    
Precipitation  
Precipitation 0.00 in - - ()
Sea Level Pressure  
Sea Level Pressure 30.50 in    
Wind  
Wind Speed 13 mph (NE)    
Max Wind Speed 17 mph    
Max Gust Speed 28 mph    
Visibility 10 miles    
Events      
Averages and records for this station are not official NWS values.
T = Trace of Precipitation, MM = Missing Value Source: NWS Daily Summary

Daily Weather History Graph

Daily Weather History Graph

Search for Another Location

Airport or City:

Trip Planner

Search our weather history database for the weather conditions in past years. The results will help you decide how hot, cold, wet, or windy it might be!

Date:

Astronomy

Nov. 18, 2012 Rise Set
Actual Time 6:45 AM EST 4:45 PM EST
Civil Twilight 6:17 AM EST 5:14 PM EST
Nautical Twilight 5:44 AM EST 5:46 PM EST
Astronomical Twilight 5:13 AM EST 6:17 PM EST
Moon 11:11 AM EST (11/18) 10:01 PM EST (11/18)
Length of Visible Light 10h 56m
Length of Day
10h 00m
Waxing Crescent, 30% of the Moon is Illuminated
Nov 18
Waxing Crescent
Nov 20
First Quarter
Nov 28
Full
Dec 6
Last Quarter
Dec 13
New

Hourly Weather History & Observations

Time (EST) Temp. Dew Point Humidity Pressure Visibility Wind Dir Wind Speed Gust Speed Precip Events Conditions
12:53 AM 50.0 °F 44.1 °F 80% 30.53 in 10.0 mi NE 13.8 mph 21.9 mph N/A   Scattered Clouds
1:53 AM 50.0 °F 44.1 °F 80% 30.53 in 10.0 mi NE 11.5 mph - N/A   Mostly Cloudy
2:53 AM 51.1 °F 44.1 °F 77% 30.53 in 10.0 mi NE 12.7 mph - N/A   Overcast
3:53 AM 51.1 °F 44.1 °F 77% 30.53 in 10.0 mi NE 10.4 mph - N/A   Overcast
4:53 AM 50.0 °F 44.1 °F 80% 30.53 in 10.0 mi NE 11.5 mph 18.4 mph N/A   Clear
5:53 AM 50.0 °F 45.0 °F 83% 30.53 in 10.0 mi NE 13.8 mph 20.7 mph N/A   Clear
6:53 AM 48.9 °F 45.0 °F 86% 30.54 in 10.0 mi NNE 8.1 mph - N/A   Mostly Cloudy
7:53 AM 52.0 °F 44.1 °F 74% 30.55 in 10.0 mi NE 12.7 mph - N/A   Overcast
8:53 AM 53.1 °F 43.0 °F 69% 30.55 in 10.0 mi ENE 13.8 mph 21.9 mph N/A   Overcast
9:53 AM 54.0 °F 44.1 °F 69% 30.55 in 10.0 mi NE 17.3 mph 25.3 mph N/A   Mostly Cloudy
10:53 AM 54.0 °F 44.1 °F 69% 30.54 in 10.0 mi NE 15.0 mph 24.2 mph N/A   Overcast
11:53 AM 55.0 °F 45.0 °F 69% 30.52 in 10.0 mi NE 16.1 mph 23.0 mph N/A   Mostly Cloudy
12:53 PM 55.0 °F 45.0 °F 69% 30.49 in 10.0 mi NE 15.0 mph 24.2 mph N/A   Mostly Cloudy
1:53 PM 55.0 °F 46.0 °F 72% 30.48 in 10.0 mi NE 15.0 mph 23.0 mph N/A   Scattered Clouds
2:53 PM 54.0 °F 45.0 °F 72% 30.48 in 10.0 mi NE 17.3 mph 25.3 mph N/A   Mostly Cloudy
3:53 PM 53.1 °F 46.0 °F 77% 30.48 in 10.0 mi NE 15.0 mph 23.0 mph N/A   Overcast
4:53 PM 51.1 °F 46.0 °F 83% 30.48 in 10.0 mi NE 13.8 mph 24.2 mph N/A   Mostly Cloudy
5:40 PM 51.8 °F 44.6 °F 76% 30.47 in 10.0 mi NE 16.1 mph 27.6 mph N/A   Overcast
5:48 PM 51.8 °F 44.6 °F 76% 30.48 in 10.0 mi NE 15.0 mph 23.0 mph N/A   Overcast
5:53 PM 51.1 °F 45.0 °F 80% 30.48 in 10.0 mi NE 12.7 mph 23.0 mph N/A   Overcast
6:53 PM 51.1 °F 46.0 °F 83% 30.48 in 10.0 mi NE 13.8 mph 23.0 mph N/A   Overcast
7:53 PM 51.1 °F 46.0 °F 83% 30.47 in 10.0 mi NE 11.5 mph 21.9 mph N/A   Overcast
8:53 PM 52.0 °F 46.0 °F 80% 30.46 in 10.0 mi NE 15.0 mph 24.2 mph N/A   Overcast
9:53 PM 52.0 °F 46.0 °F 80% 30.45 in 10.0 mi NE 16.1 mph 21.9 mph N/A   Mostly Cloudy
10:53 PM 52.0 °F 46.0 °F 80% 30.44 in 10.0 mi NE 13.8 mph 21.9 mph N/A   Scattered Clouds
11:53 PM 52.0 °F 46.9 °F 83% 30.42 in 10.0 mi NE 15.0 mph 24.2 mph N/A   Mostly Cloudy